sat.trackr.live / text

‹ back to catalog

STRIX-4

NORAD 60352 · 2024-137A

PAYLOAD ACTIVE UNKNOWN

§ Identity

Operator
Country
JPN
Launch date
2024-08-02
Launch site
RLLB
Launch vehicle
Mass (kg)
RCS (m²)

External: N2YO · Heavens-Above · Gunter

§ Orbital elements

Epoch: 2026-05-25T03:24:26.824896Z

Period
94.02 min
Inclination
43.0163°
Eccentricity
0.0016395
Mean motion
15.31622630 rev/d
Perigee alt
459.7 km
Apogee alt
482.2 km
Semi-major
6,849.1 km
B*
5.8750e-4
RAAN
56.0359°
Arg perigee
157.1460°
Mean anomaly
203.0126°
Rev number
10,048

§ Raw data

STRIX-41 60352U 24137A   26145.14197714  .00018157  00000+0  58750-3 0  99942 60352  43.0163  56.0359 0016395 157.1460 203.0126 15.31622630100487

JSON: /api/v1/satellites/60352 · /tle

For live sub-satellite position, see the globe view (requires WebGL).

§ Visibility from observer

Set your observer location to see the next 7 days of passes ≥ 10°. The values pass through the URL so the page stays shareable.

No JS? Fill the form by hand. The geolocation button needs JavaScript.